Погода в Старгарде

Польша     53°20′25″N   15°02′22″E
темп.,
°C
ветер,
м/с
пор.,
м/с
влажн.,
%
обл.,
%
осадки,
мм/ч
давл.,
гПа
погр.,
м
19 сентября, вс
вс1923:00+12ссв476079 0.0 1018616
02:00+10св356813 0.0 101895
05:00+8св22775 0.0 101826
08:00+10ссв2371100 0.0 1018107
11:00+13ссв4560100 0.0 1018911
14:00+14ссв5651100 0.0 10181571
17:00+13св5652100 0.0 10171497
20:00+12св4753100 0.0 1018351
20 сентября, пн
пн2023:00+12св3557100 0.0 1019183
02:00+11св2668100 0.0 1019244
05:00+11св2463100 0.0 1020126
08:00+11ссв2466100 0.0 1020164
11:00+13св2354100 0.0 1021853
14:00+14с235083 0.0 10211179
17:00+15ссз2250100 0.0 1021849
20:00+12с3571100 0.1 1023135
21 сентября, вт
вт2123:00+11св2570100 0.0 1024169
02:00+11св2362100 0.0 102483
05:00+10св2162100 0.0 102529
08:00+10ссв126548 0.0 102681
11:00+14ссз235179 0.0 10261287
14:00+15зсз3349100 0.1 10261499
17:00+13ссз4557100 0.1 1026621
20:00+10ссз3479100 0.1 102677
22 сентября, ср
ср2223:00+9сз2379100 0.0 102747
02:00+8зсз2280100 0.0 102623
05:00+10з2471100 0.0 1026118
08:00+9з2593100 0.6 1025204
11:00+10юз2591100 2.1 1025246
14:00+15зсз2469100 2.6 1023871
17:00+15сз3569100 0.7 1022417
20:00+11ссз2292100 0.9 102136
23 сентября, чт
чт2323:00+10зсз2294100 0.0 102128
02:00+11з2495100 0.3 1019120
05:00+9зюз35930 0.1 101892
08:00+9зюз4991100 0.1 1016239
11:00+15з7106833 0.0 1015724
14:00+17з71055100 0.0 10121229
17:00+17з71259100 0.0 10101337
20:00+14з81379100 0.4 1010892